Location: Observatoire
(46.1952°N, 5.3391°E)
Time: 18:59:43
(UTC+01:00)

Courier 1B - Pass Details

Date: 19 February 2026
Orbit: 962 x 1208 km, 28.3° (Epoch: 6 March)

Event Time Altitude Azimuth Distance (km) Brightness Sun altitude
Rises 19:00:41 0° 207° (SSW) 3,836 11.1 -9.4°
Reaches altitude 10° 19:05:48 10° 176° (S) 2,952 10.0 -10.3°
Maximum altitude 19:07:54 11° 159° (SSE) 2,877 9.8 -10.6°
Drops below altitude 10° 19:10:02 10° 142° (SE) 3,007 9.7 -11.0°
Enters shadow 19:12:49 - 123° (ESE) 3,442 9.9 -11.5°
